Location: Newark
(18.8198°N, 82.1672°E)
Time: 17:26:05
(UTC+00:00)

OTV 5 (USA 277) - Pass Details

Date: 24 August 2019
Orbit: 295 x 339 km, 54.5° (Epoch: 08 September)

Event Time Altitude Azimuth Distance (km) Brightness Sun altitude
Rises 13:16:18 0° 225° (SW) 2,026 ? -6.3°
Reaches altitude 10° 13:18:19 10° 232° (SW) 1,191 ? -6.7°
Maximum altitude 13:20:51 43° 306° (NW) 443 ? -7.3°
Drops below altitude 10° 13:23:21 10° 20° (NNE) 1,174 ? -7.9°
Sets 13:25:19 0° 28° (NNE) 1,991 ? -8.3°
